CCA1882 ZSAM-ZSHC

Flight info

Callsign CCA1882
Flight time 1h 1m
Altitude 22600
Route DOVP9Z/05 DOVPU W643 FOC W644 ANLUD/K0856S1250 W644 LEVGU/K0859S1220 W644 AKAVO/K0856S1250 A470 UGAGO UGAGO91
Aircraft A343/H-SDE2E3FGHIJ4J5M1RWXY/LB1D1

Departure

Time 2026-05-08 15:17
Airport Xiamen Gaoqi International Airport (ZSAM)

Arrival

Time 2026-05-08 16:19
Airport Hangzhou Xiaoshan International Airport (ZSHC)
Time Latitude Longitude Altitude Speed Heading
2026-05-08 14:50 24.53834 118.12628 62 ft 0 kts 143°
2026-05-08 14:51 24.53828 118.12632 62 ft 1 kts 142°
2026-05-08 14:52 24.53834 118.12628 62 ft 0 kts 143°
2026-05-08 15:03 24.53834 118.12627 62 ft 1 kts 143°
2026-05-08 15:03 24.53854 118.12612 57 ft 4 kts 148°
2026-05-08 15:04 24.53874 118.12600 53 ft 4 kts 168°
2026-05-08 15:04 24.53899 118.12603 53 ft 4 kts 210°
2026-05-08 15:04 24.53920 118.12621 53 ft 4 kts 229°
2026-05-08 15:04 24.53929 118.12633 53 ft 1 kts 232°
2026-05-08 15:07 24.53927 118.12631 53 ft 0 kts 232°
2026-05-08 15:08 24.53920 118.12619 54 ft 4 kts 240°
2026-05-08 15:08 24.53917 118.12594 54 ft 5 kts 268°
2026-05-08 15:08 24.53935 118.12560 53 ft 5 kts 308°
2026-05-08 15:08 24.53966 118.12532 54 ft 7 kts 320°
2026-05-08 15:09 24.53991 118.12488 56 ft 6 kts 269°
2026-05-08 15:09 24.53973 118.12442 52 ft 7 kts 241°
2026-05-08 15:09 24.53939 118.12393 54 ft 8 kts 232°
2026-05-08 15:09 24.53902 118.12341 54 ft 10 kts 232°
2026-05-08 15:10 24.53859 118.12281 54 ft 10 kts 231°
2026-05-08 15:10 24.53814 118.12219 55 ft 8 kts 232°
2026-05-08 15:10 24.53769 118.12155 57 ft 13 kts 231°
2026-05-08 15:10 24.53709 118.12071 56 ft 14 kts 232°
2026-05-08 15:11 24.53643 118.11979 56 ft 16 kts 232°
2026-05-08 15:11 24.53569 118.11875 57 ft 18 kts 232°
2026-05-08 15:11 24.53495 118.11772 58 ft 15 kts 231°
2026-05-08 15:11 24.53461 118.11706 61 ft 7 kts 261°
2026-05-08 15:12 24.53474 118.11671 59 ft 5 kts 298°
2026-05-08 15:12 24.53484 118.11660 59 ft 0 kts 315°
2026-05-08 15:12 24.53485 118.11659 58 ft 0 kts 315°
2026-05-08 15:15 24.53487 118.11656 58 ft 2 kts 315°
2026-05-08 15:16 24.53503 118.11641 58 ft 5 kts 319°
2026-05-08 15:16 24.53537 118.11612 58 ft 8 kts 323°
2026-05-08 15:16 24.53578 118.11611 61 ft 6 kts 24°
2026-05-08 15:16 24.53605 118.11642 61 ft 14 kts 47°
2026-05-08 15:17 24.53798 118.11906 61 ft 78 kts 52°
2026-05-08 15:17 24.54260 118.12556 52 ft 135 kts 52°
2026-05-08 15:17 24.54925 118.13476 304 ft 165 kts 53°
2026-05-08 15:17 24.55650 118.14509 936 ft 176 kts 54°
2026-05-08 15:18 24.56435 118.15627 1562 ft 195 kts 51°
2026-05-08 15:18 24.57299 118.16824 2293 ft 211 kts 52°
2026-05-08 15:18 24.58253 118.18153 2783 ft 229 kts 53°
2026-05-08 15:18 24.59252 118.19549 3535 ft 235 kts 53°
2026-05-08 15:19 24.60286 118.20996 4412 ft 246 kts 53°
2026-05-08 15:19 24.61383 118.22487 5269 ft 255 kts 47°
2026-05-08 15:19 24.62660 118.23892 6029 ft 269 kts 42°
2026-05-08 15:19 24.64075 118.25329 6786 ft 281 kts 40°
2026-05-08 15:20 24.65537 118.26807 7608 ft 288 kts 39°
2026-05-08 15:20 24.67020 118.28313 8544 ft 291 kts 40°
2026-05-08 15:20 24.68512 118.29834 9472 ft 294 kts 40°
2026-05-08 15:20 24.70023 118.31376 10278 ft 302 kts 40°
2026-05-08 15:21 24.71625 118.33009 10701 ft 323 kts 40°
2026-05-08 15:21 24.73324 118.34733 11079 ft 343 kts 40°
2026-05-08 15:21 24.75086 118.36599 11430 ft 362 kts 44°
2026-05-08 15:21 24.76830 118.38689 11792 ft 378 kts 46°
2026-05-08 15:22 24.78623 118.40873 12280 ft 388 kts 46°
2026-05-08 15:22 24.80464 118.43090 12824 ft 396 kts 45°
2026-05-08 15:22 24.82324 118.45313 13363 ft 403 kts 45°
2026-05-08 15:22 24.84216 118.47566 13950 ft 409 kts 45°
2026-05-08 15:23 24.86186 118.49907 14491 ft 413 kts 45°
2026-05-08 15:23 24.88153 118.52243 15036 ft 418 kts 45°
2026-05-08 15:23 24.90161 118.54597 15574 ft 423 kts 44°
2026-05-08 15:23 24.92187 118.56960 16112 ft 428 kts 44°
2026-05-08 15:24 24.94245 118.59362 16681 ft 432 kts 44°
2026-05-08 15:24 24.96319 118.61787 17232 ft 437 kts 44°
2026-05-08 15:24 24.98410 118.64236 17777 ft 441 kts 44°
2026-05-08 15:24 25.00522 118.66712 18335 ft 446 kts 44°
2026-05-08 15:25 25.02659 118.69218 18793 ft 452 kts 44°
2026-05-08 15:25 25.04819 118.71753 19320 ft 455 kts 44°
2026-05-08 15:25 25.07001 118.74315 19845 ft 458 kts 44°
2026-05-08 15:25 25.09196 118.76895 20325 ft 463 kts 44°
2026-05-08 15:26 25.11410 118.79496 20822 ft 466 kts 44°
2026-05-08 15:26 25.13630 118.82109 21317 ft 469 kts 44°
2026-05-08 15:26 25.15875 118.84752 21811 ft 473 kts 44°
2026-05-08 15:26 25.18142 118.87421 22314 ft 476 kts 44°
2026-05-08 15:27 25.20412 118.90097 22650 ft 481 kts 44°
2026-05-08 15:27 25.22765 118.92646 22739 ft 479 kts 36°
2026-05-08 15:27 25.25513 118.94720 22740 ft 472 kts 23°
2026-05-08 15:27 25.28510 118.96005 22738 ft 464 kts 11°
2026-05-08 15:28 25.31645 118.96798 22734 ft 461 kts
2026-05-08 15:28 25.34807 118.97362 22749 ft 460 kts
2026-05-08 15:28 25.37986 118.97817 22751 ft 459 kts
2026-05-08 15:28 25.41146 118.98235 22747 ft 459 kts
2026-05-08 15:29 25.44314 118.98659 22743 ft 459 kts
2026-05-08 15:29 25.47500 118.99106 22753 ft 460 kts
2026-05-08 15:29 25.50669 118.99568 22750 ft 460 kts
2026-05-08 15:29 25.53839 119.00044 22759 ft 460 kts
2026-05-08 15:30 25.57016 119.00529 22759 ft 460 kts
2026-05-08 15:30 25.60184 119.01016 22759 ft 460 kts
2026-05-08 15:30 25.63356 119.01505 22761 ft 460 kts
2026-05-08 15:30 25.66526 119.01993 22764 ft 460 kts
2026-05-08 15:31 25.69702 119.02481 22763 ft 460 kts
2026-05-08 15:31 25.72875 119.02969 22767 ft 460 kts
2026-05-08 15:31 25.76000 119.03451 22766 ft 460 kts
2026-05-08 15:31 25.79162 119.03938 22773 ft 460 kts
2026-05-08 15:32 25.82339 119.04427 22792 ft 460 kts
2026-05-08 15:32 25.85504 119.04914 22776 ft 460 kts
2026-05-08 15:32 25.88672 119.05401 22772 ft 460 kts
2026-05-08 15:32 25.91840 119.05890 22775 ft 460 kts
2026-05-08 15:33 25.95019 119.06381 22772 ft 460 kts
2026-05-08 15:33 25.98185 119.06870 22776 ft 460 kts
2026-05-08 15:33 26.01356 119.07360 22778 ft 460 kts
2026-05-08 15:33 26.04526 119.07850 22779 ft 460 kts
2026-05-08 15:34 26.07696 119.08340 22786 ft 460 kts
2026-05-08 15:34 26.10855 119.08829 22778 ft 460 kts
2026-05-08 15:34 26.14032 119.09321 22782 ft 460 kts
2026-05-08 15:34 26.17155 119.09805 22782 ft 460 kts
2026-05-08 15:35 26.20332 119.10297 22779 ft 460 kts
2026-05-08 15:35 26.23512 119.10789 22780 ft 460 kts
2026-05-08 15:35 26.26689 119.11281 22780 ft 460 kts
2026-05-08 15:35 26.28789 119.11607 22782 ft 460 kts
2026-05-08 15:36 26.33017 119.12264 22780 ft 460 kts
2026-05-08 15:36 26.35101 119.12588 22785 ft 459 kts
2026-05-08 15:36 26.38283 119.13083 22781 ft 459 kts
2026-05-08 15:36 26.41450 119.13576 22787 ft 458 kts
2026-05-08 15:37 26.44617 119.14068 22788 ft 458 kts
2026-05-08 15:37 26.48787 119.14716 22786 ft 458 kts
2026-05-08 15:37 26.50914 119.15047 22789 ft 458 kts
2026-05-08 15:37 26.54077 119.15536 22792 ft 458 kts
2026-05-08 15:38 26.57238 119.16021 22789 ft 458 kts
2026-05-08 15:38 26.60398 119.16508 22805 ft 458 kts
2026-05-08 15:38 26.63516 119.16991 22792 ft 459 kts
2026-05-08 15:38 26.66674 119.17483 22785 ft 459 kts
2026-05-08 15:39 26.69843 119.17977 22790 ft 459 kts
2026-05-08 15:39 26.73003 119.18471 22788 ft 459 kts
2026-05-08 15:39 26.76167 119.18966 22790 ft 459 kts
2026-05-08 15:39 26.79297 119.19455 22789 ft 459 kts
2026-05-08 15:40 26.82493 119.19956 22785 ft 459 kts
2026-05-08 15:40 26.85660 119.20453 22794 ft 459 kts
2026-05-08 15:40 26.88822 119.20947 22787 ft 459 kts
2026-05-08 15:40 26.91983 119.21443 22781 ft 459 kts
2026-05-08 15:41 26.95163 119.21944 22785 ft 460 kts
2026-05-08 15:41 26.98327 119.22442 22784 ft 460 kts
2026-05-08 15:41 27.01499 119.22941 22778 ft 459 kts
2026-05-08 15:41 27.04664 119.23439 22778 ft 460 kts
2026-05-08 15:42 27.07796 119.23932 22777 ft 460 kts
2026-05-08 15:42 27.11005 119.24437 22801 ft 460 kts
2026-05-08 15:42 27.14176 119.24937 22781 ft 460 kts
2026-05-08 15:42 27.17311 119.25431 22784 ft 461 kts
2026-05-08 15:43 27.20505 119.25935 22781 ft 462 kts
2026-05-08 15:43 27.23681 119.26436 22783 ft 462 kts
2026-05-08 15:43 27.26870 119.26941 22783 ft 462 kts
2026-05-08 15:43 27.30056 119.27446 22784 ft 462 kts
2026-05-08 15:44 27.33250 119.27950 22778 ft 462 kts
2026-05-08 15:44 27.36436 119.28454 22791 ft 462 kts
2026-05-08 15:44 27.39624 119.28960 22781 ft 461 kts
2026-05-08 15:44 27.42798 119.29465 22785 ft 461 kts
2026-05-08 15:45 27.45977 119.29962 22779 ft 461 kts
2026-05-08 15:45 27.49155 119.30464 22767 ft 461 kts
2026-05-08 15:45 27.52295 119.30962 22787 ft 461 kts
2026-05-08 15:45 27.55466 119.31468 22783 ft 461 kts
2026-05-08 15:46 27.58635 119.31977 22781 ft 461 kts
2026-05-08 15:46 27.61820 119.32501 22791 ft 461 kts
2026-05-08 15:46 27.64992 119.33001 23273 ft 460 kts
2026-05-08 15:46 27.68191 119.33505 22689 ft 464 kts
2026-05-08 15:47 27.71378 119.34010 22780 ft 462 kts
2026-05-08 15:47 27.74558 119.34516 22787 ft 461 kts
2026-05-08 15:47 27.77737 119.35020 22784 ft 463 kts
2026-05-08 15:47 27.80932 119.35529 22777 ft 464 kts
2026-05-08 15:48 27.87343 119.36551 22794 ft 467 kts
2026-05-08 15:48 27.90567 119.37065 22795 ft 468 kts
2026-05-08 15:48 27.93790 119.37581 22802 ft 468 kts
2026-05-08 15:49 27.97008 119.38096 22798 ft 468 kts
2026-05-08 15:49 28.00233 119.38611 22797 ft 467 kts
2026-05-08 15:49 28.03417 119.39123 22800 ft 468 kts
2026-05-08 15:49 28.06641 119.39640 22801 ft 468 kts
2026-05-08 15:50 28.09864 119.40156 22801 ft 467 kts
2026-05-08 15:50 28.13082 119.40673 22799 ft 468 kts
2026-05-08 15:50 28.16305 119.41198 22815 ft 468 kts
2026-05-08 15:50 28.19538 119.41716 22805 ft 468 kts
2026-05-08 15:51 28.22758 119.42231 22817 ft 468 kts
2026-05-08 15:51 28.25983 119.42750 22822 ft 468 kts
2026-05-08 15:51 28.29208 119.43265 22821 ft 468 kts
2026-05-08 15:51 28.32435 119.43783 22814 ft 467 kts
2026-05-08 15:52 28.35614 119.44297 22817 ft 468 kts
2026-05-08 15:52 28.38847 119.44820 22823 ft 468 kts
2026-05-08 15:52 28.42057 119.45337 22819 ft 466 kts
2026-05-08 15:52 28.45267 119.45856 22826 ft 465 kts
2026-05-08 15:53 28.48474 119.46375 22819 ft 465 kts
2026-05-08 15:53 28.51686 119.46894 22822 ft 465 kts
2026-05-08 15:53 28.54886 119.47411 22820 ft 463 kts
2026-05-08 15:53 28.58082 119.47928 22819 ft 464 kts
2026-05-08 15:54 28.61279 119.48445 22835 ft 465 kts
2026-05-08 15:54 28.64486 119.48964 22819 ft 465 kts
2026-05-08 15:54 28.67670 119.49481 22821 ft 465 kts
2026-05-08 15:54 28.70870 119.50002 22821 ft 465 kts
2026-05-08 15:55 28.74080 119.50523 22773 ft 464 kts
2026-05-08 15:55 28.80387 119.51557 22183 ft 454 kts
2026-05-08 15:55 28.83515 119.52069 21835 ft 443 kts
2026-05-08 15:56 28.86496 119.52557 21624 ft 436 kts
2026-05-08 15:56 28.89497 119.53042 21429 ft 435 kts
2026-05-08 15:56 28.92486 119.53522 21240 ft 434 kts
2026-05-08 15:56 28.95478 119.54009 21033 ft 433 kts
2026-05-08 15:57 28.98460 119.54489 20833 ft 434 kts
2026-05-08 15:57 29.01457 119.54978 20554 ft 434 kts
2026-05-08 15:57 29.04453 119.55470 20274 ft 434 kts
2026-05-08 15:57 29.07428 119.55958 19999 ft 433 kts
2026-05-08 15:58 29.10411 119.56447 19767 ft 432 kts
2026-05-08 15:58 29.13379 119.56934 19531 ft 428 kts
2026-05-08 15:58 29.16319 119.57417 19302 ft 424 kts
2026-05-08 15:58 29.19226 119.57894 19079 ft 422 kts
2026-05-08 15:59 29.22138 119.58370 18853 ft 421 kts
2026-05-08 15:59 29.25023 119.58844 18633 ft 417 kts
2026-05-08 15:59 29.27897 119.59314 18391 ft 417 kts
2026-05-08 15:59 29.30770 119.59784 18139 ft 417 kts
2026-05-08 16:00 29.33648 119.60256 17881 ft 418 kts
2026-05-08 16:00 29.36483 119.60723 17704 ft 416 kts
2026-05-08 16:00 29.39347 119.61195 17524 ft 413 kts
2026-05-08 16:00 29.42183 119.61661 17353 ft 412 kts
2026-05-08 16:01 29.45021 119.62127 17176 ft 411 kts
2026-05-08 16:01 29.47833 119.62591 16889 ft 405 kts
2026-05-08 16:01 29.50616 119.63034 16176 ft 405 kts
2026-05-08 16:01 29.53440 119.63498 15255 ft 414 kts
2026-05-08 16:02 29.56292 119.63976 14630 ft 412 kts
2026-05-08 16:02 29.59131 119.64449 14030 ft 410 kts
2026-05-08 16:02 29.61947 119.64916 13419 ft 405 kts
2026-05-08 16:02 29.64682 119.65334 12895 ft 398 kts
2026-05-08 16:03 29.67424 119.65516 12315 ft 393 kts
2026-05-08 16:03 29.70115 119.65650 11874 ft 377 kts
2026-05-08 16:03 29.72619 119.65794 11620 ft 340 kts
2026-05-08 16:03 29.74868 119.65934 11425 ft 310 kts
2026-05-08 16:04 29.76982 119.66070 11220 ft 300 kts
2026-05-08 16:04 29.79051 119.66182 11058 ft 294 kts
2026-05-08 16:04 29.81068 119.66271 10911 ft 287 kts
2026-05-08 16:04 29.83044 119.66384 10790 ft 281 kts
2026-05-08 16:05 29.84915 119.66940 10649 ft 277 kts 24°
2026-05-08 16:05 29.86444 119.68282 10331 ft 282 kts 48°
2026-05-08 16:05 29.87565 119.70156 9977 ft 286 kts 56°
2026-05-08 16:05 29.88585 119.72129 9706 ft 286 kts 57°
2026-05-08 16:06 29.89588 119.74079 9345 ft 287 kts 57°
2026-05-08 16:06 29.90611 119.76049 8986 ft 286 kts 58°
2026-05-08 16:06 29.91635 119.78012 8640 ft 285 kts 58°
2026-05-08 16:06 29.92650 119.79949 8470 ft 278 kts 58°
2026-05-08 16:07 29.93637 119.81832 8362 ft 270 kts 58°
2026-05-08 16:07 29.94521 119.83703 8219 ft 262 kts 63°
2026-05-08 16:07 29.95304 119.85566 8124 ft 255 kts 64°
2026-05-08 16:07 29.96063 119.87378 8032 ft 247 kts 64°
2026-05-08 16:08 29.96810 119.89140 7882 ft 243 kts 64°
2026-05-08 16:08 29.97553 119.90875 7688 ft 240 kts 64°
2026-05-08 16:08 29.98288 119.92583 7348 ft 235 kts 64°
2026-05-08 16:08 29.99049 119.94240 6857 ft 232 kts 61°
2026-05-08 16:09 29.99860 119.95813 6532 ft 222 kts 60°
2026-05-08 16:09 30.00376 119.96804 6406 ft 214 kts 60°
2026-05-08 16:09 30.01384 119.98755 6101 ft 209 kts 63°
2026-05-08 16:09 30.02116 120.00189 5895 ft 207 kts 63°
2026-05-08 16:10 30.02841 120.01616 5688 ft 205 kts 63°
2026-05-08 16:10 30.03556 120.03029 5468 ft 203 kts 64°
2026-05-08 16:10 30.04268 120.04437 5282 ft 202 kts 64°
2026-05-08 16:10 30.04973 120.05834 5082 ft 200 kts 64°
2026-05-08 16:11 30.05673 120.07221 4893 ft 199 kts 64°
2026-05-08 16:11 30.06359 120.08583 4677 ft 199 kts 64°
2026-05-08 16:11 30.07056 120.09966 4478 ft 199 kts 64°
2026-05-08 16:11 30.07760 120.11345 4284 ft 200 kts 62°
2026-05-08 16:12 30.08513 120.12690 4074 ft 199 kts 60°
2026-05-08 16:12 30.09278 120.14027 3875 ft 200 kts 61°
2026-05-08 16:12 30.10041 120.15369 3667 ft 199 kts 61°
2026-05-08 16:12 30.10794 120.16704 3472 ft 199 kts 61°
2026-05-08 16:13 30.11541 120.18031 3306 ft 190 kts 62°
2026-05-08 16:13 30.12195 120.19274 3088 ft 174 kts 66°
2026-05-08 16:13 30.12754 120.20494 2999 ft 172 kts 67°
2026-05-08 16:13 30.13297 120.21715 2990 ft 165 kts 68°
2026-05-08 16:14 30.13782 120.22792 2987 ft 140 kts 69°
2026-05-08 16:14 30.14215 120.23756 3021 ft 134 kts 69°
2026-05-08 16:14 30.14643 120.24730 2998 ft 137 kts 69°
2026-05-08 16:14 30.15077 120.25713 2998 ft 138 kts 69°
2026-05-08 16:15 30.15514 120.26703 2867 ft 139 kts 69°
2026-05-08 16:15 30.15952 120.27691 2646 ft 138 kts 69°
2026-05-08 16:15 30.16392 120.28674 2470 ft 138 kts 68°
2026-05-08 16:15 30.16831 120.29657 2283 ft 138 kts 68°
2026-05-08 16:16 30.17269 120.30639 2105 ft 137 kts 68°
2026-05-08 16:16 30.17701 120.31606 1921 ft 137 kts 68°
2026-05-08 16:16 30.18137 120.32588 1753 ft 137 kts 67°
2026-05-08 16:16 30.18571 120.33572 1585 ft 138 kts 68°
2026-05-08 16:17 30.19001 120.34555 1382 ft 136 kts 67°
2026-05-08 16:17 30.19283 120.35200 1272 ft 135 kts 68°
2026-05-08 16:17 30.19857 120.36506 1041 ft 136 kts 67°
2026-05-08 16:17 30.20310 120.37467 847 ft 136 kts 64°
2026-05-08 16:18 30.20736 120.38433 705 ft 135 kts 66°
2026-05-08 16:18 30.21156 120.39400 530 ft 134 kts 65°
2026-05-08 16:18 30.21580 120.40354 359 ft 133 kts 65°
2026-05-08 16:18 30.22007 120.41300 154 ft 132 kts 63°
2026-05-08 16:19 30.22419 120.42228 38 ft 120 kts 63°
2026-05-08 16:19 30.22716 120.42907 35 ft 68 kts 63°
2026-05-08 16:19 30.22891 120.43304 38 ft 47 kts 63°
2026-05-08 16:19 30.23025 120.43587 37 ft 38 kts 55°
2026-05-08 16:20 30.23138 120.43708 38 ft 9 kts 34°
2026-05-08 16:20 30.23200 120.43754 37 ft 12 kts 31°
2026-05-08 16:20 30.23281 120.43800 36 ft 14 kts 11°
2026-05-08 16:20 30.23375 120.43762 36 ft 15 kts 330°
2026-05-08 16:21 30.23473 120.43701 36 ft 17 kts 334°
2026-05-08 16:21 30.23583 120.43637 36 ft 19 kts 332°
2026-05-08 16:21 30.23645 120.43600 36 ft 7 kts 332°
2026-05-08 16:21 30.23691 120.43568 36 ft 8 kts 319°
2026-05-08 16:22 30.23689 120.43515 36 ft 7 kts 249°
2026-05-08 16:22 30.23674 120.43478 36 ft 5 kts 243°
2026-05-08 16:22 30.23670 120.43469 36 ft 4 kts 242°
2026-05-08 16:22 30.23670 120.43468 36 ft 0 kts 242°